| time (UTC) | temp F | wind direction | speed knots | gust knots | rain 1hr in | rain 24hr in | rain mn in | humidity % | barometer mb |
| 20260506124011 | 47 | 78 | 4.3 | 5.2 | 0.00 | 0.00 | 0.00 | 53 | 1008.1 |
| 20260506123011 | 46 | 102 | 6.1 | 5.2 | 0.00 | 0.00 | 0.00 | 53 | 1008.2 |
| 20260506122011 | 45 | 109 | 5.2 | 6.1 | 0.00 | 0.00 | 0.00 | 54 | 1008.2 |
| 20260506121011 | 45 | 119 | 5.2 | 6.1 | 0.00 | 0.00 | 0.00 | 53 | 1008.2 |
| 20260506120011 | 44 | 125 | 6.1 | 7.0 | 0.00 | 0.00 | 0.00 | 53 | 1008.1 |
| 20260506115011 | 44 | 107 | 4.3 | 4.3 | 0.00 | 0.00 | 0.00 | 53 | 1008.3 |
| 20260506114010 | 45 | 130 | 5.2 | 5.2 | 0.00 | 0.00 | 0.00 | 52 | 1008.2 |
| 20260506113010 | 46 | 119 | 5.2 | 7.0 | 0.00 | 0.00 | 0.00 | 53 | 1008.0 |
| 20260506112010 | 46 | 128 | 6.1 | 7.8 | 0.00 | 0.00 | 0.00 | 52 | 1007.9 |
| 20260506111011 | 46 | 81 | 4.3 | 5.2 | 0.00 | 0.00 | 0.00 | 52 | 1007.8 |
| 20260506110011 | 45 | 102 | 5.2 | 6.1 | 0.00 | 0.00 | 0.00 | 52 | 1007.7 |
| 20260506105011 | 46 | 114 | 4.3 | 5.2 | 0.00 | 0.00 | 0.00 | 51 | 1007.7 |
| 20260506104011 | 46 | 98 | 3.5 | 3.5 | 0.00 | 0.00 | 0.00 | 51 | 1007.5 |
| 20260506103011 | 46 | 90 | 3.5 | 4.3 | 0.00 | 0.00 | 0.00 | 50 | 1007.4 |
| 20260506102011 | 46 | 334 | 3.5 | 3.5 | 0.00 | 0.00 | 0.00 | 49 | 1007.3 |
| 20260506101011 | 46 | 346 | 7.0 | 7.0 | 0.00 | 0.00 | 0.00 | 49 | 1007.3 |
| 20260506100011 | 47 | 342 | 5.2 | 6.1 | 0.00 | 0.00 | 0.00 | 50 | 1007.1 |
| 20260506095011 | 46 | 303 | 4.3 | 5.2 | 0.00 | 0.00 | 0.00 | 50 | 1007.0 |
| 20260506094011 | 46 | 318 | 4.3 | 7.8 | 0.00 | 0.00 | 0.00 | 51 | 1006.9 |
| 20260506093011 | 46 | 325 | 7.0 | 6.1 | 0.00 | 0.00 | 0.00 | 51 | 1006.8 |
| 20260506092011 | 46 | 287 | 4.3 | 4.3 | 0.00 | 0.00 | 0.00 | 51 | 1006.8 |
| 20260506091011 | 46 | 299 | 5.2 | 7.8 | 0.00 | 0.00 | 0.00 | 52 | 1006.8 |
| 20260506090011 | 45 | 282 | 4.3 | 5.2 | 0.00 | 0.00 | 0.00 | 52 | 1006.7 |
| 20260506085011 | 45 | 250 | 4.3 | 5.2 | 0.00 | 0.00 | 0.00 | 53 | 1006.6 |
| 20260506084011 | 44 | 235 | 4.3 | 5.2 | 0.00 | 0.00 | 0.00 | 54 | 1006.6 |
| 20260506083011 | 44 | 281 | 5.2 | 5.2 | 0.00 | 0.00 | 0.00 | 54 | 1006.5 |
| 20260506082011 | 44 | 257 | 3.5 | 3.5 | 0.00 | 0.00 | 0.00 | 54 | 1006.4 |
| 20260506081011 | 43 | 266 | 4.3 | 6.1 | 0.00 | 0.00 | 0.00 | 55 | 1006.2 |
| 20260506073011 | 40 | 283 | 4.3 | 5.2 | 0.00 | 0.00 | 0.00 | 56 | 1005.7 |
| 20260506072011 | 40 | 275 | 5.2 | 7.8 | 0.00 | 0.00 | 0.00 | 56 | 1005.5 |
| 20260506071011 | 39 | 270 | 5.2 | 6.1 | 0.00 | 0.00 | 0.00 | 56 | 1005.5 |
| 20260506062011 | 38 | 270 | 6.1 | 7.8 | 0.00 | 0.00 | 0.00 | 57 | 1004.8 |
| 20260506061011 | 37 | 280 | 5.2 | 6.1 | 0.00 | 0.00 | 0.00 | 58 | 1004.7 |
| 20260506051010 | 35 | 272 | 4.3 | 6.1 | 0.00 | 0.00 | 0.00 | 58 | 1004.2 |
| 20260506045010 | 35 | 279 | 5.2 | 7.0 | 0.00 | 0.00 | 0.00 | 58 | 1004.0 |
| 20260506044011 | 35 | 267 | 5.2 | 4.3 | 0.00 | 0.00 | 0.00 | 58 | 1004.0 |
| 20260506043011 | 35 | 259 | 5.2 | 7.8 | 0.00 | 0.00 | 0.00 | 58 | 1004.0 |
| 20260506042011 | 34 | 273 | 7.0 | 7.8 | 0.00 | 0.00 | 0.00 | 59 | 1003.8 |
| 20260506041011 | 34 | 258 | 7.0 | 8.7 | 0.00 | 0.00 | 0.00 | 59 | 1003.8 |
| 20260506040011 | 34 | 304 | 6.1 | 7.8 | 0.00 | 0.00 | 0.00 | 58 | 1003.6 |
| 20260506035010 | 34 | 289 | 6.1 | 7.8 | 0.00 | 0.00 | 0.00 | 58 | 1003.6 |
| 20260506034011 | 33 | 264 | 5.2 | 7.0 | 0.00 | 0.00 | 0.00 | 59 | 1003.4 |
| 20260506033011 | 33 | 254 | 4.3 | 6.1 | 0.00 | 0.00 | 0.00 | 59 | 1003.4 |
| 20260506032011 | 33 | 267 | 5.2 | 6.1 | 0.00 | 0.00 | 0.00 | 59 | 1003.4 |
| 20260506031011 | 32 | 264 | 3.5 | 5.2 | 0.00 | 0.00 | 0.00 | 59 | 1003.4 |
| 20260506030011 | 32 | 270 | 5.2 | 7.8 | 0.00 | 0.00 | 0.00 | 59 | 1003.3 |
| 20260506025011 | 32 | 262 | 3.5 | 3.5 | 0.00 | 0.00 | 0.00 | 58 | 1003.2 |
| 20260506024011 | 32 | 269 | 4.3 | 6.1 | 0.00 | 0.00 | 0.00 | 58 | 1003.2 |
| 20260506023011 | 31 | 274 | 2.6 | 4.3 | 0.00 | 0.00 | 0.00 | 58 | 1003.2 |
| 20260506022011 | 31 | 253 | 4.3 | 7.0 | 0.00 | 0.00 | 0.00 | 57 | 1003.2 |
| 20260506021011 | 31 | 252 | 2.6 | 6.1 | 0.00 | 0.00 | 0.00 | 57 | 1003.1 |
| 20260506020011 | 32 | 231 | 5.2 | 2.6 | 0.00 | 0.00 | 0.00 | 56 | 1003.0 |
| 20260506015011 | 32 | 253 | 2.6 | 4.3 | 0.00 | 0.00 | 0.00 | 56 | 1003.0 |
| 20260506014011 | 32 | 253 | 3.5 | 4.3 | 0.00 | 0.00 | 0.00 | 56 | 1003.0 |
| 20260506013011 | 32 | 248 | 3.5 | 3.5 | 0.00 | 0.00 | 0.00 | 55 | 1002.9 |
| 20260506012010 | 33 | 254 | 4.3 | 5.2 | 0.00 | 0.00 | 0.00 | 55 | 1002.8 |
| 20260506011011 | 33 | 282 | 5.2 | 7.0 | 0.00 | 0.00 | 0.00 | 55 | 1002.7 |
| 20260506010011 | 33 | 266 | 6.1 | 8.7 | 0.00 | 0.00 | 0.00 | 55 | 1002.6 |
| 20260506005011 | 33 | 245 | 6.1 | 5.2 | 0.00 | 0.00 | 0.00 | 54 | 1002.5 |
| 20260506004011 | 33 | 264 | 4.3 | 5.2 | 0.00 | 0.00 | 0.00 | 54 | 1002.5 |
| 20260506003011 | 33 | 262 | 5.2 | 3.5 | 0.00 | 0.00 | 0.00 | 53 | 1002.5 |
| 20260506002011 | 33 | 267 | 4.3 | 7.0 | 0.00 | 0.00 | 0.00 | 53 | 1002.4 |
| 20260506001011 | 33 | 247 | 4.3 | 6.1 | 0.00 | 0.00 | 0.00 | 52 | 1002.3 |
| 20260506000011 | 33 | 268 | 5.2 | 7.8 | 0.00 | 0.00 | 0.00 | 52 | 1002.2 |
| 20260505235010 | 33 | 283 | 4.3 | 7.8 | 0.00 | 0.00 | 0.00 | 51 | 1002.2 |
| 20260505234011 | 34 | 263 | 4.3 | 4.3 | 0.00 | 0.00 | 0.00 | 51 | 1002.2 |
| 20260505233011 | 34 | 257 | 3.5 | 5.2 | 0.00 | 0.00 | 0.00 | 51 | 1002.1 |
| 20260505232011 | 34 | 260 | 5.2 | 7.8 | 0.00 | 0.00 | 0.00 | 51 | 1002.1 |
| 20260505231011 | 34 | 255 | 4.3 | 5.2 | 0.00 | 0.00 | 0.00 | 50 | 1002.1 |
| 20260505230011 | 34 | 266 | 3.5 | 3.5 | 0.00 | 0.00 | 0.00 | 50 | 1002.1 |
| 20260505225011 | 34 | 257 | 3.5 | 4.3 | 0.00 | 0.00 | 0.00 | 49 | 1002.0 |
| 20260505224010 | 34 | 274 | 3.5 | 4.3 | 0.00 | 0.00 | 0.00 | 49 | 1002.0 |
| 20260505223011 | 35 | 244 | 3.5 | 5.2 | 0.00 | 0.00 | 0.00 | 49 | 1002.0 |
| 20260505222011 | 35 | 260 | 4.3 | 3.5 | 0.00 | 0.00 | 0.00 | 48 | 1001.9 |
| 20260505221010 | 35 | 255 | 3.5 | 5.2 | 0.00 | 0.00 | 0.00 | 48 | 1001.9 |
| 20260505220011 | 35 | 272 | 2.6 | 4.3 | 0.00 | 0.00 | 0.00 | 48 | 1001.9 |
| 20260505215010 | 35 | 275 | 2.6 | 3.5 | 0.00 | 0.00 | 0.00 | 47 | 1001.9 |
| 20260505214010 | 35 | 236 | 2.6 | 3.5 | 0.00 | 0.00 | 0.00 | 47 | 1001.9 |
| 20260505213011 | 35 | 263 | 3.5 | 4.3 | 0.00 | 0.00 | 0.00 | 47 | 1001.9 |
| 20260505212011 | 36 | 260 | 2.6 | 5.2 | 0.00 | 0.00 | 0.00 | 46 | 1001.8 |
| 20260505211011 | 36 | 261 | 2.6 | 3.5 | 0.00 | 0.00 | 0.00 | 46 | 1001.7 |
| 20260505210011 | 36 | 277 | 4.3 | 6.1 | 0.00 | 0.00 | 0.00 | 46 | 1001.7 |
| 20260505205011 | 36 | 273 | 2.6 | 4.3 | 0.00 | 0.00 | 0.00 | 46 | 1001.6 |
| 20260505204011 | 36 | 254 | 2.6 | 2.6 | 0.00 | 0.00 | 0.00 | 45 | 1001.6 |
| 20260505203011 | 36 | 258 | 2.6 | 1.7 | 0.00 | 0.00 | 0.00 | 44 | 1001.5 |
| 20260505202011 | 36 | 259 | 2.6 | 3.5 | 0.00 | 0.00 | 0.00 | 44 | 1001.4 |
| 20260505201011 | 36 | 273 | 1.7 | 2.6 | 0.00 | 0.00 | 0.00 | 44 | 1001.4 |
| 20260505200011 | 37 | 246 | 1.7 | 0.9 | 0.00 | 0.00 | 0.00 | 43 | 1001.3 |
| 20260505195011 | 37 | 249 | 3.5 | 3.5 | 0.00 | 0.00 | 0.00 | 43 | 1001.3 |
| 20260505194011 | 38 | 254 | 2.6 | 3.5 | 0.00 | 0.00 | 0.00 | 42 | 1001.2 |
| 20260505193011 | 38 | 260 | 3.5 | 5.2 | 0.00 | 0.00 | 0.00 | 41 | 1001.1 |
| 20260505192011 | 38 | 315 | 1.7 | 1.7 | 0.00 | 0.00 | 0.00 | 40 | 1001.1 |
| 20260505191011 | 39 | 245 | 2.6 | 1.7 | 0.00 | 0.00 | 0.00 | 40 | 1001.0 |
| 20260505190011 | 40 | 303 | 2.6 | 3.5 | 0.00 | 0.00 | 0.00 | 39 | 1001.0 |
| 20260505185011 | 40 | 253 | 1.7 | 1.7 | 0.00 | 0.00 | 0.00 | 39 | 1000.9 |
| 20260505184011 | 41 | 245 | 3.5 | 3.5 | 0.00 | 0.00 | 0.00 | 38 | 1000.9 |
| 20260505183011 | 42 | 271 | 2.6 | 3.5 | 0.00 | 0.00 | 0.00 | 38 | 1000.7 |
| 20260505182011 | 42 | 275 | 4.3 | 4.3 | 0.00 | 0.00 | 0.00 | 37 | 1000.6 |
| 20260505181011 | 43 | 288 | 4.3 | 5.2 | 0.00 | 0.00 | 0.00 | 37 | 1000.5 |
| 20260505180011 | 43 | 256 | 8.7 | 7.8 | 0.00 | 0.00 | 0.00 | 37 | 1000.5 |
| 20260505175011 | 44 | 277 | 7.0 | 10.4 | 0.00 | 0.00 | 0.00 | 36 | 1000.3 |
| 20260505174011 | 44 | 284 | 7.0 | 8.7 | 0.00 | 0.00 | 0.00 | 36 | 1000.2 |
| 20260505173011 | 44 | 297 | 5.2 | 7.8 | 0.00 | 0.00 | 0.00 | 36 | 1000.2 |
| 20260505172011 | 45 | 256 | 4.3 | 5.2 | 0.00 | 0.00 | 0.00 | 35 | 1000.1 |
| 20260505171011 | 46 | 264 | 7.0 | 7.8 | 0.00 | 0.00 | 0.00 | 34 | 1000.1 |
| 20260505170011 | 47 | 266 | 6.1 | 7.8 | 0.00 | 0.00 | 0.00 | 33 | 1000.1 |
| 20260505165011 | 50 | 282 | 7.0 | 7.8 | 0.00 | 0.00 | 0.00 | 32 | 1000.0 |
| 20260505164011 | 52 | 278 | 8.7 | 9.6 | 0.00 | 0.00 | 0.00 | 30 | 999.9 |
| 20260505163011 | 53 | 296 | 10.4 | 8.7 | 0.00 | 0.00 | 0.00 | 30 | 999.8 |
| 20260505162011 | 52 | 270 | 9.6 | 10.4 | 0.00 | 0.00 | 0.00 | 31 | 999.6 |
| 20260505161011 | 51 | 286 | 8.7 | 10.4 | 0.00 | 0.00 | 0.00 | 32 | 999.6 |
| 20260505153011 | 48 | 302 | 7.8 | 9.6 | 0.00 | 0.00 | 0.00 | 33 | 999.2 |
| 20260505152011 | 48 | 280 | 7.0 | 9.6 | 0.00 | 0.00 | 0.00 | 33 | 999.1 |
| 20260505151011 | 48 | 315 | 9.6 | 10.4 | 0.00 | 0.00 | 0.00 | 33 | 999.1 |
| 20260505125011 | 50 | 264 | 10.4 | 16.5 | 0.00 | 0.00 | 0.00 | 35 | 998.2 |